Flag for Taiwan Weather past 2 weeks in Kaohsiung, Taiwan

Now
79 °F

Partly cloudy.


Feels Like: 82 °F
Forecast: 71 / 85 °F
Wind: 5 mph from Southwest

Location: Kaohsiung International Airport


UV Index: 10 (Very high)

Visibility: N/A


Pressure: 29.86 "Hg

Humidity: 84%

Dew point: 73 °F

Location of KaohsiungLocation

Historic Weather in Kaohsiung

°F

Kaohsiung temperature yesterday

Maximum temperature yesterday: 82 °F (at 9:00 AM)
Minimum temperature yesterday: 72 °F (at 6:00 AM)
Average temperature yesterday: 80 °F

Past Weeks' High & Low Weather Summary

 TemperatureHumidityPressure
High88 °F (Apr 9, 12:00 PM)94% (Apr 5, 5:00 AM)30.09 "Hg (Apr 5, 5:00 AM)
Low66 °F (Apr 5, 5:00 AM)52% (Apr 9, 12:00 PM)29.83 "Hg (Apr 9, 3:30 PM)
Average78 °F75%29.94 "Hg
* Reported Apr 4 10:00 PM — Apr 19 10:30 PM, Kaohsiung, Weather by CustomWeather, © 2014

Note: Actual official high and low records may vary slightly from our data, if they occured in-between our weather recording intervals... More about our weather records

Advertising

Historic Weather Conditions — Data for Previous 24 hours

 ConditionsComfort  
Time TempWeatherWind HumidityBarometerVisibility
10:30 PM
Apr 19
79 °FPassing clouds.5 mph79%29.86 "HgN/A
10:00 PM79 °FPartly cloudy.3 mph79%29.89 "HgN/A
9:30 PM79 °FPartly cloudy.5 mph79%29.89 "HgN/A
9:00 PM79 °FPartly cloudy.5 mph79%29.89 "HgN/A
8:30 PM79 °FPartly cloudy.5 mph74%29.86 "HgN/A
8:00 PM79 °FPartly cloudy.6 mph74%29.86 "HgN/A
7:30 PM79 °FPartly cloudy.6 mph74%29.86 "HgN/A
7:00 PM79 °FPartly cloudy.5 mph74%29.86 "HgN/A
6:30 PM79 °FPartly cloudy.6 mph74%29.83 "HgN/A
6:00 PM79 °FBroken clouds.6 mph79%29.83 "HgN/A
5:30 PM81 °FPartly sunny.7 mph70%29.83 "HgN/A
5:00 PM81 °FPartly sunny.7 mph70%29.83 "HgN/A
4:30 PM81 °FPartly sunny.9 mph70%29.83 "HgN/A
4:00 PM81 °FPartly sunny.9 mph74%29.83 "HgN/A
3:30 PM81 °FPartly sunny.9 mph74%29.83 "HgN/A
3:00 PM82 °FPartly sunny.10 mph70%29.83 "HgN/A
2:30 PM82 °FPartly sunny.9 mph70%29.83 "HgN/A
2:00 PM82 °FBroken clouds.9 mph70%29.86 "HgN/A
1:30 PM82 °FPartly sunny.9 mph70%29.86 "HgN/A
1:00 PM82 °FPartly sunny.12 mph70%29.86 "Hg6 mi
12:30 PM84 °FBroken clouds.10 mph70%29.89 "Hg5 mi
12:00 PM82 °FBroken clouds.10 mph74%29.89 "Hg5 mi
11:30 AM84 °FPartly sunny.10 mph66%29.89 "Hg4 mi
11:00 AM82 °FPartly sunny.9 mph70%29.92 "Hg4 mi
10:30 AM82 °FPartly sunny.8 mph74%29.92 "Hg4 mi
10:00 AM81 °FPartly sunny.8 mph74%29.92 "Hg4 mi
9:30 AM81 °FBroken clouds.8 mph74%29.92 "Hg4 mi
9:00 AM82 °FBroken clouds.5 mph70%29.92 "Hg5 mi
8:30 AM81 °FPartly sunny.5 mph74%29.92 "Hg5 mi
8:00 AM81 °FBroken clouds.2 mph74%29.92 "Hg5 mi
7:30 AM77 °FBroken clouds.6 mph83%29.92 "Hg5 mi
7:00 AM77 °FBroken clouds.7 mph83%29.92 "Hg4 mi
6:30 AM75 °FScattered clouds.5 mph89%29.89 "Hg4 mi
6:00 AM73 °FBroken clouds.3 mph94%29.89 "Hg4 mi
5:00 AM75 °FPassing clouds.5 mph89%29.89 "Hg4 mi
4:00 AM75 °FPassing clouds.6 mph89%29.86 "Hg4 mi
3:00 AM75 °FPartly cloudy.6 mph94%29.86 "Hg5 mi
2:00 AM77 °FPassing clouds.6 mph89%29.86 "Hg5 mi
1:00 AM77 °FPassing clouds.6 mph83%29.89 "HgN/A
12:00 AM77 °FPartly cloudy.3 mph89%29.89 "HgN/A
11:30 PM
Apr 18
77 °FPartly cloudy.5 mph89%29.89 "HgN/A
11:00 PM79 °FPartly cloudy.6 mph79%29.92 "HgN/A
Weather by CustomWeather, © 2014

See weather overview